Silver Bay, MN

10:02 PM CDT on August 21, 2017 (GMT -0500)
Silver Bay Municipal

Weather History for KBFW - August, 2014

Change the Weather History Date:

Saturday, August 16, 2014

  Actual Average Record
Temperature  
Mean Temperature 64 °F -  
Max Temperature 71 °F 71 °F 87 °F (2008)
Min Temperature 57 °F 48 °F 42 °F (2013)
Degree Days  
Heating Degree Days 1    
Growing Degree Days 14 (Base 50)    
Moisture  
Dew Point 63 °F    
Average Humidity 96    
Maximum Humidity 100    
Minimum Humidity 73    
Precipitation  
Precipitation 0.40 in - - ()
Sea Level Pressure  
Sea Level Pressure 29.89 in    
Wind  
Wind Speed 4 mph (NE)    
Max Wind Speed 13 mph    
Max Gust Speed -    
Visibility 10 miles    
Events Rain , Thunderstorm    
Averages and records for this station are not official NWS values.
T = Trace of Precipitation, MM = Missing Value Source: NWS Daily Summary

Daily Weather History Graph

Daily Weather History Graph

Search for Another Location

Airport or City:

Trip Planner

Search our weather history database for the weather conditions in past years. The results will help you decide how hot, cold, wet, or windy it might be!

Date:

Astronomy

Aug. 16, 2014 Rise Set
Actual Time 6:03 AM CDT 8:15 PM CDT
Civil Twilight 5:30 AM CDT 8:48 PM CDT
Nautical Twilight 4:48 AM CDT 9:30 PM CDT
Astronomical Twilight 4:01 AM CDT 10:16 PM CDT
Moon 11:28 PM CDT (8/16) 1:19 PM CDT (8/16)
Length of Visible Light 15h 18m
Length of Day
14h 11m
Waning Gibbous, 58% of the Moon is Illuminated
Aug 16
Waning Gibbous
Aug 17
Last Quarter
Aug 25
New
Sep 2
First Quarter
Sep 8
Full

Hourly Weather History & Observations

Time (CDT) Temp. Dew Point Humidity Pressure Visibility Wind Dir Wind Speed Gust Speed Precip Events Conditions
12:14 AM 69.8 °F 66.2 °F 88% 29.78 in 10.0 mi Calm Calm - N/A   Clear
12:34 AM 69.8 °F 66.2 °F 88% 29.78 in 10.0 mi Calm Calm - N/A   Clear
12:54 AM 71.6 °F 68.0 °F 88% 29.81 in 10.0 mi North 8.1 mph - N/A   Clear
1:14 AM 69.8 °F 66.2 °F 88% 29.82 in 10.0 mi NNW 8.1 mph - N/A Thunderstorm Thunderstorm
1:34 AM 66.2 °F 66.2 °F 100% 29.80 in 7.0 mi North 4.6 mph - 0.22 in Rain Heavy Rain
1:54 AM 66.2 °F 66.2 °F 100% 29.81 in 4.0 mi WNW 4.6 mph - 0.09 in Rain Heavy Rain
2:14 AM 66.2 °F 66.2 °F 100% 29.78 in 10.0 mi Calm Calm - 0.15 in Rain Light Rain
2:34 AM 66.2 °F 66.2 °F 100% 29.78 in 10.0 mi WNW 4.6 mph - 0.16 in Rain Rain
2:54 AM 66.2 °F 66.2 °F 100% 29.77 in 7.0 mi West 4.6 mph - 0.02 in Rain Light Rain
3:14 AM 66.2 °F 66.2 °F 100% 29.77 in 10.0 mi Calm Calm - 0.02 in   Clear
3:34 AM 64.4 °F 64.4 °F 100% 29.76 in 10.0 mi WNW 3.5 mph - 0.02 in   Clear
3:54 AM 64.4 °F 64.4 °F 100% 29.76 in 10.0 mi Calm Calm - N/A   Clear
4:14 AM 66.2 °F 66.2 °F 100% 29.76 in 10.0 mi West 4.6 mph - N/A   Clear
4:34 AM 66.2 °F 66.2 °F 100% 29.76 in 10.0 mi WNW 4.6 mph - N/A   Clear
4:54 AM 66.2 °F 66.2 °F 100% 29.76 in 10.0 mi NW 3.5 mph - N/A   Clear
5:14 AM 66.2 °F 66.2 °F 100% 29.77 in 10.0 mi Calm Calm - N/A   Clear
5:34 AM 66.2 °F 66.2 °F 100% 29.78 in 10.0 mi Calm Calm - N/A   Clear
5:54 AM 64.4 °F 64.4 °F 100% 29.80 in 7.0 mi Calm Calm - N/A   Clear
6:14 AM 64.4 °F 64.4 °F 100% 29.81 in 10.0 mi Calm Calm - N/A   Scattered Clouds
6:34 AM 64.4 °F 64.4 °F 100% 29.82 in 4.0 mi Calm Calm - N/A   Scattered Clouds
6:54 AM 64.4 °F 64.4 °F 100% 29.83 in 4.0 mi Calm Calm - N/A   Scattered Clouds
7:14 AM 66.2 °F 66.2 °F 100% 29.84 in 10.0 mi NE 4.6 mph - N/A   Scattered Clouds
7:34 AM 66.2 °F 66.2 °F 100% 29.84 in 10.0 mi NE 3.5 mph - N/A   Scattered Clouds
7:54 AM 66.2 °F 66.2 °F 100% 29.84 in 10.0 mi North 5.8 mph - N/A   Scattered Clouds
8:12 AM 66.2 °F 66.2 °F 100% 29.85 in 10.0 mi Calm Calm - N/A   Clear
8:34 AM 66.2 °F 66.2 °F 100% 29.85 in 10.0 mi NNE 5.8 mph - N/A   Scattered Clouds
8:54 AM 68.0 °F 68.0 °F 100% 29.85 in 10.0 mi North 4.6 mph - N/A   Scattered Clouds
9:14 AM 68.0 °F 66.2 °F 94% 29.86 in 10.0 mi NE 5.8 mph - N/A   Clear
9:34 AM 66.2 °F 64.4 °F 94% 29.87 in 10.0 mi ENE 5.8 mph - N/A   Scattered Clouds
9:54 AM 64.4 °F 64.4 °F 100% 29.87 in 10.0 mi NE 5.8 mph - N/A   Scattered Clouds
10:14 AM 64.4 °F 64.4 °F 100% 29.88 in 10.0 mi ENE 4.6 mph - N/A   Scattered Clouds
10:34 AM 66.2 °F 64.4 °F 94% 29.89 in 10.0 mi NE 4.6 mph - N/A   Scattered Clouds
10:54 AM 66.2 °F 64.4 °F 94% 29.89 in 10.0 mi Calm Calm - N/A   Clear
11:14 AM 66.2 °F 64.4 °F 94% 29.90 in 10.0 mi Calm Calm - N/A   Clear
11:34 AM 66.2 °F 64.4 °F 94% 29.90 in 10.0 mi ESE 6.9 mph - N/A   Clear
11:54 AM 66.2 °F 64.4 °F 94% 29.91 in 10.0 mi East 5.8 mph - N/A   Clear
12:14 PM 66.2 °F 62.6 °F 88% 29.91 in 10.0 mi East 4.6 mph - N/A   Clear
12:34 PM 64.4 °F 62.6 °F 94% 29.91 in 10.0 mi East 4.6 mph - N/A   Clear
1:14 PM 64.4 °F 62.6 °F 94% 29.92 in 10.0 mi NE 4.6 mph - N/A   Clear
1:34 PM 64.4 °F 62.6 °F 94% 29.92 in 10.0 mi Calm Calm - N/A   Clear
1:54 PM 66.2 °F 64.4 °F 94% 29.92 in 10.0 mi ESE 3.5 mph - N/A   Clear
2:14 PM 68.0 °F 62.6 °F 83% 29.91 in 10.0 mi East 5.8 mph - N/A   Clear
2:34 PM 69.8 °F 62.6 °F 78% 29.92 in 10.0 mi SE 5.8 mph - N/A   Clear
2:54 PM 69.8 °F 62.6 °F 78% 29.93 in 10.0 mi SE 6.9 mph - N/A   Clear
3:14 PM 69.8 °F 60.8 °F 73% 29.93 in 10.0 mi ESE 5.8 mph - N/A   Clear
3:34 PM 69.8 °F 62.6 °F 78% 29.93 in 10.0 mi East 6.9 mph - N/A   Clear
3:54 PM 68.0 °F 62.6 °F 83% 29.94 in 10.0 mi ENE 9.2 mph - N/A   Clear
4:14 PM 66.2 °F 62.6 °F 88% 29.94 in 10.0 mi NE 9.2 mph - N/A   Clear
4:34 PM 66.2 °F 62.6 °F 88% 29.94 in 10.0 mi NE 10.4 mph - N/A   Scattered Clouds
4:54 PM 64.4 °F 62.6 °F 94% 29.95 in 10.0 mi ENE 9.2 mph - N/A   Scattered Clouds
5:14 PM 64.4 °F 62.6 °F 94% 29.95 in 10.0 mi NE 6.9 mph - N/A   Scattered Clouds
5:34 PM 62.6 °F 62.6 °F 100% 29.96 in 10.0 mi NE 11.5 mph - N/A   Scattered Clouds
5:54 PM 62.6 °F 62.6 °F 100% 29.96 in 10.0 mi ENE 12.7 mph - N/A   Mostly Cloudy
6:14 PM 60.8 °F 60.8 °F 100% 29.96 in 10.0 mi ENE 8.1 mph - N/A   Overcast
6:34 PM 60.8 °F 60.8 °F 100% 29.97 in 10.0 mi ENE 9.2 mph - N/A   Overcast
6:54 PM 60.8 °F 60.8 °F 100% 29.97 in 10.0 mi ENE 5.8 mph - N/A   Overcast
7:14 PM 59.0 °F 59.0 °F 100% 29.97 in 10.0 mi NE 8.1 mph - N/A   Overcast
7:34 PM 59.0 °F 59.0 °F 100% 29.98 in 10.0 mi ENE 6.9 mph - N/A   Mostly Cloudy
7:54 PM 59.0 °F 59.0 °F 100% 29.98 in 10.0 mi NE 6.9 mph - N/A   Mostly Cloudy
8:14 PM 59.0 °F 59.0 °F 100% 29.99 in 10.0 mi ENE 5.8 mph - N/A   Scattered Clouds
8:34 PM 57.2 °F 57.2 °F 100% 30.00 in 5.0 mi NE 4.6 mph - N/A   Overcast
8:54 PM 57.2 °F 57.2 °F 100% 30.00 in 7.0 mi NE 5.8 mph - N/A   Mostly Cloudy
9:14 PM 57.2 °F 57.2 °F 100% 30.01 in 10.0 mi ENE 4.6 mph - N/A   Mostly Cloudy
9:34 PM 57.2 °F 57.2 °F 100% 30.01 in 10.0 mi NE 6.9 mph - N/A   Scattered Clouds
9:54 PM 57.2 °F 57.2 °F 100% 30.02 in 10.0 mi NE 5.8 mph - N/A   Scattered Clouds
10:14 PM 57.2 °F 57.2 °F 100% 30.02 in 10.0 mi NE 5.8 mph - N/A   Scattered Clouds
10:34 PM 57.2 °F 57.2 °F 100% 30.03 in 10.0 mi ENE 4.6 mph - N/A   Mostly Cloudy
10:54 PM 57.2 °F 57.2 °F 100% 30.04 in 10.0 mi NE 4.6 mph - N/A   Scattered Clouds
11:14 PM 57.2 °F 57.2 °F 100% 30.04 in 10.0 mi ENE 5.8 mph - N/A   Scattered Clouds
11:34 PM 57.2 °F 57.2 °F 100% 30.05 in 10.0 mi ENE 5.8 mph - N/A   Scattered Clouds
11:54 PM 57.2 °F 57.2 °F 100% 30.04 in 10.0 mi ENE 6.9 mph - N/A   Scattered Clouds